West Palm Beach, FL

8:07 AM EST on December 08, 2019 (GMT -0500)
Palm Beach International

Weather History for KPBI - October, 2019

Change the Weather History Date:

Friday, October 25, 2019

  Actual Average Record
Temperature  
Mean Temperature 83 °F 77 °F  
Max Temperature 87 °F 84 °F 90 °F (1925)
Min Temperature 79 °F 70 °F 52 °F (2005)
Degree Days  
Heating Degree Days 0 0  
Month to date heating degree days 0 0  
Since 1 July heating degree days 0 0  
Cooling Degree Days 18 12  
Month to date cooling degree days 427 347  
Year to date cooling degree days 4136 3555  
Growing Degree Days 33 (Base 50)    
Moisture  
Dew Point 72 °F    
Average Humidity 73    
Maximum Humidity 85    
Minimum Humidity 61    
Precipitation  
Precipitation 0.01 in 0.15 in 1.94 in (1921)
Month to date precipitation 4.31 4.25  
Year to date precipitation 52.30 53.32  
Snow  
Snow 0.00 in - - ()
Month to date snowfall 0.0  
Since 1 July snowfall 0.0  
Since 1 September snowfall 0.0  
Snow Depth 0.00 in    
Sea Level Pressure  
Sea Level Pressure 30.02 in    
Wind  
Wind Speed 17 mph (East)    
Max Wind Speed 24 mph    
Max Gust Speed 30 mph    
Visibility 10 miles    
Events      
T = Trace of Precipitation, MM = Missing Value Source: NWS Daily Summary

Daily Weather History Graph

Daily Weather History Graph

Search for Another Location

Airport or City:

Astronomy

Oct. 25, 2019 Rise Set
Actual Time 7:25 AM EDT 6:43 PM EDT
Civil Twilight 7:01 AM EDT 7:06 PM EDT
Nautical Twilight 6:34 AM EDT 7:34 PM EDT
Astronomical Twilight 6:07 AM EDT 8:01 PM EDT
Moon 4:32 AM EDT (10/25) 5:22 PM EDT (10/25)
Length of Visible Light 12h 05m
Length of Day
11h 17m
Waning Crescent, 9% of the Moon is Illuminated
Oct 25
Waning Crescent
Oct 27
New
Nov 4
First Quarter
Nov 12
Full
Nov 19
Last Quarter

Hourly Weather History & Observations

Time (EDT) Temp. Heat Index Dew Point Humidity Pressure Visibility Wind Dir Wind Speed Gust Speed Precip Events Conditions
12:53 AM 81.0 °F 85.2 °F 72.0 °F 74% 30.07 in 10.0 mi East 15.0 mph 24.2 mph N/A   Scattered Clouds
1:53 AM 81.0 °F 85.8 °F 73.0 °F 77% 30.06 in 10.0 mi East 13.8 mph - N/A   Mostly Cloudy
2:53 AM 80.1 °F 83.8 °F 72.0 °F 76% 30.04 in 10.0 mi East 16.1 mph - N/A   Scattered Clouds
3:53 AM 80.1 °F 83.8 °F 72.0 °F 76% 30.02 in 10.0 mi East 13.8 mph - N/A   Scattered Clouds
4:53 AM 80.1 °F 83.6 °F 71.1 °F 74% 30.02 in 10.0 mi East 13.8 mph - N/A   Partly Cloudy
5:53 AM 80.1 °F 83.6 °F 71.1 °F 74% 30.03 in 10.0 mi East 15.0 mph 23.0 mph N/A   Scattered Clouds
6:53 AM 79.0 °F - 73.9 °F 84% 30.04 in 10.0 mi East 15.0 mph - 0.01 in   Mostly Cloudy
7:53 AM 80.1 °F 84.2 °F 73.0 °F 79% 30.05 in 10.0 mi East 16.1 mph - N/A   Mostly Cloudy
8:53 AM 81.0 °F 85.2 °F 72.0 °F 74% 30.06 in 10.0 mi East 17.3 mph - N/A   Scattered Clouds
9:53 AM 82.9 °F 88.0 °F 72.0 °F 69% 30.07 in 10.0 mi East 20.7 mph - N/A   Scattered Clouds
10:53 AM 84.9 °F 90.7 °F 72.0 °F 65% 30.07 in 10.0 mi East 19.6 mph - N/A   Scattered Clouds
11:53 AM 84.9 °F 90.7 °F 72.0 °F 65% 30.06 in 10.0 mi East 19.6 mph 26.5 mph N/A   Mostly Cloudy
12:53 PM 84.9 °F 91.4 °F 73.0 °F 67% 30.04 in 10.0 mi ESE 21.9 mph 26.5 mph N/A   Mostly Cloudy
1:53 PM 84.9 °F 92.1 °F 73.9 °F 69% 30.01 in 10.0 mi ESE 20.7 mph - N/A   Mostly Cloudy
2:53 PM 86.0 °F 92.2 °F 72.0 °F 63% 29.99 in 10.0 mi ESE 20.7 mph 27.6 mph N/A   Mostly Cloudy
3:53 PM 84.0 °F 90.2 °F 73.0 °F 69% 29.98 in 10.0 mi East 17.3 mph - N/A   Mostly Cloudy
4:53 PM 84.0 °F 89.6 °F 72.0 °F 67% 29.97 in 10.0 mi ESE 21.9 mph - N/A   Mostly Cloudy
5:53 PM 82.9 °F 88.0 °F 72.0 °F 69% 29.96 in 10.0 mi ESE 17.3 mph - N/A   Mostly Cloudy
6:53 PM 82.0 °F 86.7 °F 72.0 °F 71% 29.96 in 10.0 mi East 18.4 mph - N/A   Scattered Clouds
7:53 PM 82.0 °F 87.4 °F 73.0 °F 74% 29.98 in 10.0 mi ESE 18.4 mph - 0.00 in   Mostly Cloudy
8:53 PM 81.0 °F 84.9 °F 71.1 °F 72% 29.99 in 10.0 mi ESE 15.0 mph - N/A   Scattered Clouds
9:53 PM 81.0 °F 84.9 °F 71.1 °F 72% 30.01 in 10.0 mi ESE 16.1 mph - N/A   Scattered Clouds
10:53 PM 81.0 °F 84.9 °F 71.1 °F 72% 30.02 in 10.0 mi ESE 16.1 mph - N/A   Scattered Clouds
11:53 PM 82.0 °F 86.3 °F 71.1 °F 69% 30.01 in 10.0 mi East 15.0 mph - N/A   Scattered Clouds